This demonstration page uses our WeatherBlox Daily Observations layout. Learn more.

Left ArrowRight Arrow

36.17497, -115.13722

Hourly Observations for May 31, 2017

Temp ( °F °C ) Dew Point ( °F °C ) Humidity (%) Winds ( mph kmh ) Pressure ( in mb ) Visibility ( mi km ) Precip ( " mm )
12:53 am 00:53 Clear 79 26.1 29 -1.7 16 16 Calm 29.75 1007 10 16 0.00 0.00
1:53 am 01:53 Clear 80 26.7 28 -2.2 15 15 SSW 6 9 29.74 1007 10 16 0.00 0.00
2:53 am 02:53 Clear 75 23.9 29 -1.7 18 18 Calm 29.75 1008 10 16 0.00 0.00
3:53 am 03:53 Clear 73 22.8 30 -1.1 20 20 N 5 7 29.75 1008 10 16 0.00 0.00
4:53 am 04:53 Clear 72 22.2 31 -0.6 22 22 Calm 29.75 1008 10 16 0.00 0.00
5:53 am 05:53 Sunny 72 22.2 31 -0.6 22 22 Calm 29.77 1008 10 16 0.00 0.00
6:53 am 06:53 Sunny 76 24.4 34 1.1 22 22 N 5 7 29.79 1009 10 16 0.00 0.00
7:53 am 07:53 Sunny 79 26.1 35 1.7 20 20 Calm 29.79 1009 10 16 0.00 0.00
8:53 am 08:53 Sunny 82 27.8 31 -0.6 16 16 ESE 7 11 29.80 1009 10 16 0.00 0.00
9:53 am 09:53 Sunny 85 29.4 29 -1.7 13 13 SE 8 13 29.80 1009 10 16 0.00 0.00
10:53 am 10:53 Sunny 88 31.1 26 -3.3 10 10 SE 10 17 29.79 1009 10 16 0.00 0.00
11:53 am 11:53 Sunny 89 31.7 16 -8.9 7 7 SSE 7 11 29.77 1008 10 16 0.00 0.00
12:53 pm 12:53 Sunny 90 32.2 20 -6.7 8 8 SSE 17 28 29.75 1007 10 16 0.00 0.00
1:53 pm 13:53 Sunny 92 33.3 18 -7.8 6 6 SSE 16 26 29.72 1006 10 16 0.00 0.00
2:53 pm 14:53 Sunny 95 35 14 -10 5 5 SSW 14 22 29.69 1005 10 16 0.00 0.00
3:01 pm 15:01 Sunny 95 35 11 -11.7 4 4 SW 17 28 29.53 1000 10 16 0.00 0.00
3:53 pm 15:53 Sunny 96 35.6 6 -14.4 3 3 SSW 22 35 29.68 1005 10 16 0.00 0.00
4:53 pm 16:53 Sunny 94 34.4 12 -11.1 5 5 S 16 26 29.68 1005 10 16 0.00 0.00
5:53 pm 17:53 Sunny 93 33.9 10 -12.2 4 4 SW 10 17 29.68 1005 10 16 0.00 0.00
6:50 pm 18:50 Sunny 91 33 16 -9 6 6 W 10 17 29.53 1000 10 16 0.00 0.00
6:53 pm 18:53 Sunny 91 32.8 15 -9.4 6 6 W 10 17 29.68 1005 10 16 0.00 0.00
7:53 pm 19:53 Clear 89 31.7 19 -7.2 7 7 W 9 15 29.69 1006 10 16 0.00 0.00
8:53 pm 20:53 Clear 87 30.6 20 -6.7 8 8 WSW 6 9 29.71 1006 10 16 0.00 0.00
9:53 pm 21:53 Clear 85 29.4 23 -5 10 10 Calm 29.72 1007 10 16 0.00 0.00
10:53 pm 22:53 Clear 82 27.8 27 -2.8 13 13 WNW 3 6 29.73 1007 10 16 0.00 0.00
11:53 pm 23:53 Clear 78 25.6 28 -2.2 16 16 NW 7 11 29.73 1007 10 16 0.00 0.00

Powered by AerisWeather